Flag for USA Past Weather in Warminster Township, Pennsylvania, USA — Yesterday and Last 2 Weeks

Now
91 °F

Sunny.


Feels Like: 96 °F
Forecast: 74 / 94 °F
Wind: 10 mph from Southwest

Location: Doylestown Airport

Current Time: Jul 25, 2016 at 4:06:52 PM

Latest Report: Jul 25, 2016 at 2:54 PM


Visibility: 10 mi

Pressure: 29.83 "Hg

Humidity: 49%

Dew Point: 69 °F

Location of Warminster TownshipLocation

Past Weather in Warminster Township — Graph

°F

Warminster Township Temperature Yesterday

Maximum temperature yesterday: 93 °F (at 2:54 PM)
Minimum temperature yesterday: 66 °F (at 4:54 AM)
Average temperature yesterday: 80 °F

High & Low Weather Summary for the Past Weeks

 TemperatureHumidityPressure
High95 °F (Jul 23, 4:54 PM)100% (Jul 12, 5:54 AM)30.23 "Hg (Jul 12, 5:54 AM)
Low57 °F (Jul 11, 5:54 AM)27% (Jul 23, 4:54 PM)29.78 "Hg (Jul 14, 5:54 PM)
Average77 °F67%30.00 "Hg
* Reported Jul 10 2:54 PM — Jul 25 2:54 PM, Warminster Township, Weather by CustomWeather, © 2016

Note: Actual official high and low records may vary slightly from our data, if they occured in-between our weather recording intervals... More about our weather records

Advertising

Warminster Township Weather History for the Previous 24 Hours

Scroll right to see more
 ConditionsComfort  
Time TempWeatherWind HumidityBarometerVisibility
2:54 PM
Mon, Jul 25
91 °FSunny.10 mph49%29.83 "Hg10 mi
1:54 PM90 °FSunny.6 mph54%29.86 "Hg10 mi
12:54 PM89 °FSunny.7 mph53%29.89 "Hg10 mi
11:54 AM87 °FSunny.7 mph55%29.91 "Hg10 mi
10:54 AM83 °FSunny.7 mph72%29.93 "Hg10 mi
9:54 AM79 °FPassing clouds.6 mph82%29.93 "Hg10 mi
8:54 AM76 °FSunny.3 mph91%29.93 "Hg10 mi
7:54 AM73 °FSunny.No wind97%29.92 "Hg10 mi
6:54 AM72 °FBroken clouds.No wind97%29.93 "Hg10 mi
5:54 AM71 °FLight rain. Mostly cloudy.6 mph96%29.94 "Hg9 mi
5:03 AM72 °FThundershowers. Mostly cloudy.6 mph97%29.95 "Hg7 mi
4:54 AM72 °FThundershowers. Fog.6 mph97%29.94 "Hg6 mi
3:54 AM77 °FMostly cloudy.5 mph71%29.92 "Hg10 mi
2:54 AM77 °FPassing clouds.5 mph64%29.93 "Hg10 mi
1:54 AM78 °FLight rain. Passing clouds.5 mph56%29.93 "Hg10 mi
12:54 AM79 °FPassing clouds.6 mph54%29.95 "Hg10 mi
11:54 PM
Sun, Jul 24
79 °FOvercast.5 mph60%29.96 "Hg10 mi
10:54 PM80 °FPassing clouds.5 mph60%29.96 "Hg10 mi
9:54 PM81 °FClear.6 mph56%29.97 "Hg10 mi
8:54 PM82 °FSunny.5 mph53%29.94 "Hg10 mi
7:54 PM84 °FSunny.5 mph48%29.93 "Hg10 mi
6:54 PM88 °FSunny.5 mph39%29.92 "Hg10 mi
5:54 PM90 °FSunny.9 mph35%29.92 "Hg10 mi
4:54 PM90 °FSunny.5 mph31%29.92 "Hg10 mi
Weather by CustomWeather, © 2016

See weather overviewHow to use our weather pages